�N����,����,�~����,�C��,���x,�C��,����,���ϕ���,�ő�u�ԕ���,�ő厞����,���˗�,�I�_���x,�n�����x,�ő啗���N��,DTYPE
"17/04/22","00:10",0.0,11.9,82.4,1002.6,338.9,2.0,2.8,349.6,0.00,9.0,14.2,"00:08:08",1
"17/04/22","00:20",0.0,12.0,81.9,1003.1,339.3,1.7,2.5,353.5,0.00,9.0,14.1,"00:18:16",1
"17/04/22","00:30",0.0,12.2,81.0,1003.4,334.7,2.1,3.7,337.5,0.00,9.1,14.1,"00:27:54",1
"17/04/22","00:40",0.0,12.5,79.5,1003.4,341.3,2.5,3.6,344.7,0.00,9.1,14.1,"00:37:32",1
"17/04/22","00:50",0.0,12.2,79.6,1003.4,334.8,2.5,3.6,333.9,0.00,8.8,14.1,"00:42:18",1
"17/04/22","01:00",0.0,12.2,79.5,1003.1,333.9,2.3,3.7,347.8,0.00,8.8,14.1,"00:52:42",1
"17/04/22","01:10",0.0,11.8,80.8,1003.1,332.6,2.3,3.4,340.5,0.00,8.7,13.9,"01:08:10",1
"17/04/22","01:20",0.0,11.8,81.4,1003.1,325.2,2.3,3.2,327.6,0.00,8.8,14.0,"01:10:56",1
"17/04/22","01:30",0.0,11.7,81.4,1003.4,310.2,1.6,2.5,318.4,0.00,8.7,13.9,"01:24:00",1
"17/04/22","01:40",0.0,11.5,82.1,1003.4,318.8,1.6,2.2,327.0,0.00,8.6,13.9,"01:36:24",1
"17/04/22","01:50",0.0,11.4,82.4,1003.4,304.7,1.6,2.2,316.6,0.00,8.6,13.8,"01:45:32",1
"17/04/22","02:00",0.0,11.5,82.5,1003.4,307.8,2.0,4.1,318.0,0.00,8.7,13.8,"01:53:56",1
"17/04/22","02:10",0.0,11.6,81.3,1003.4,316.5,1.8,2.5,333.5,0.00,8.5,13.8,"02:01:52",1
"17/04/22","02:20",0.0,11.8,80.5,1003.6,330.2,2.1,3.4,340.0,0.00,8.6,13.7,"02:13:04",1
"17/04/22","02:30",0.0,11.9,79.3,1003.6,333.3,1.7,2.6,337.3,0.00,8.5,13.6,"02:25:36",1
"17/04/22","02:40",0.0,11.6,80.1,1003.6,334.0,1.6,2.5,343.6,0.00,8.3,13.7,"02:37:56",1
"17/04/22","02:50",0.0,11.3,81.7,1003.1,328.8,1.6,2.2,336.3,0.00,8.3,13.8,"02:42:08",1
"17/04/22","03:00",0.0,11.1,82.5,1003.1,323.7,1.6,2.4,309.6,0.00,8.3,13.6,"02:51:12",1
"17/04/22","03:10",0.0,11.0,82.9,1002.9,307.2,1.5,2.4,318.2,0.00,8.2,13.6,"03:05:30",1
"17/04/22","03:20",0.0,10.8,84.0,1003.4,315.0,1.2,2.1,327.8,0.00,8.2,13.7,"03:17:10",1
"17/04/22","03:30",0.0,10.7,85.0,1003.1,329.8,1.5,2.8,333.6,0.00,8.3,13.5,"03:29:50",1
"17/04/22","03:40",0.0,10.7,85.5,1003.1,312.9,1.2,1.9,336.0,0.00,8.4,13.4,"03:30:48",1
"17/04/22","03:50",0.0,10.7,85.6,1002.9,333.1,1.6,2.2,331.3,0.00,8.4,13.4,"03:41:06",1
"17/04/22","04:00",0.0,10.5,86.3,1002.6,308.8,1.5,2.6,341.2,0.00,8.4,13.5,"03:59:36",1
"17/04/22","04:10",0.0,10.5,86.5,1002.6,326.0,1.7,2.8,329.8,0.00,8.4,13.3,"04:00:24",1
"17/04/22","04:20",0.0,10.2,86.9,1002.9,307.0,1.6,2.0,338.4,0.00,8.2,13.2,"04:11:40",1
"17/04/22","04:30",0.0,10.0,87.4,1003.1,302.5,1.3,2.4,319.3,0.00,8.0,13.2,"04:25:58",1
"17/04/22","04:40",0.0,10.0,88.2,1003.4,319.7,1.5,2.1,340.2,0.00,8.2,13.3,"04:32:22",1
"17/04/22","04:50",0.0,10.1,88.3,1002.9,314.0,1.2,2.0,328.8,0.00,8.3,13.2,"04:46:30",1
"17/04/22","05:00",0.0,9.9,88.6,1002.9,298.4,0.7,1.6,317.2,0.00,8.1,13.1,"04:54:26",1
"17/04/22","05:10",0.0,9.8,89.0,1003.1,300.1,1.3,2.2,311.0,0.00,8.1,13.0,"05:09:30",1
"17/04/22","05:20",0.0,9.7,89.5,1002.9,313.9,1.2,2.4,317.7,0.00,8.1,13.1,"05:15:28",1
"17/04/22","05:30",0.0,9.6,90.1,1002.9,285.0,1.0,1.6,271.4,0.00,8.1,13.3,"05:24:54",1
"17/04/22","05:40",0.0,9.8,90.6,1002.9,320.2,1.1,2.1,311.4,0.00,8.4,13.1,"05:38:54",1
"17/04/22","05:50",0.0,9.8,90.7,1003.4,308.9,1.2,2.5,323.7,0.00,8.4,13.1,"05:48:42",1
"17/04/22","06:00",0.0,9.8,90.9,1003.1,303.0,1.5,2.0,312.8,0.00,8.4,13.1,"05:59:20",1
"17/04/22","06:10",0.0,10.0,90.6,1003.1,315.1,1.5,2.9,316.9,0.00,8.6,13.2,"06:08:00",1
"17/04/22","06:20",0.0,10.2,90.4,1003.1,294.1,1.0,1.4,291.8,0.00,8.7,13.1,"06:18:22",1
"17/04/22","06:30",0.0,10.4,90.3,1003.6,300.1,1.2,1.7,312.3,0.02,8.9,13.0,"06:23:16",1
"17/04/22","06:40",0.0,10.6,89.8,1003.8,297.1,1.2,2.2,326.6,0.02,9.0,13.0,"06:36:48",1
"17/04/22","06:50",0.0,10.9,89.7,1003.8,309.1,1.3,2.5,323.7,0.03,9.3,13.2,"06:44:56",1
"17/04/22","07:00",0.0,11.3,89.4,1003.8,290.3,0.7,1.2,296.9,0.05,9.7,13.1,"06:55:20",1
"17/04/22","07:10",0.0,11.9,88.3,1004.3,279.0,0.7,1.1,309.9,0.07,10.1,13.2,"07:04:16",1
"17/04/22","07:20",0.0,13.0,80.0,1004.1,250.9,0.6,2.6,234.0,0.12,9.7,13.2,"07:19:52",1
"17/04/22","07:30",0.0,13.5,74.5,1004.5,296.2,1.2,4.3,336.7,0.09,9.1,13.3,"07:29:52",1
"17/04/22","07:40",0.0,13.6,74.3,1004.8,344.3,1.6,3.3,335.0,0.07,9.2,13.2,"07:30:08",1
"17/04/22","07:50",0.0,14.1,71.7,1004.8,338.6,1.8,4.3,337.7,0.14,9.1,13.2,"07:49:28",1
"17/04/22","08:00",0.0,14.5,70.5,1004.5,344.2,2.2,4.2,337.7,0.19,9.2,13.3,"07:50:32",1
"17/04/22","08:10",0.0,14.5,71.4,1004.5,332.4,2.7,4.8,338.7,0.16,9.4,13.4,"08:01:04",1
"17/04/22","08:20",0.0,15.0,68.7,1004.3,336.4,2.5,4.5,334.3,0.22,9.3,13.7,"08:14:40",1
"17/04/22","08:30",0.0,15.6,64.6,1004.8,317.3,2.0,4.2,333.0,0.29,9.0,13.6,"08:29:52",1
"17/04/22","08:40",0.0,15.1,63.9,1004.5,339.8,3.2,7.8,344.5,0.25,8.4,13.6,"08:37:52",1
"17/04/22","08:50",0.0,15.5,63.2,1004.3,334.3,3.7,6.8,334.3,0.27,8.6,13.8,"08:48:48",1
"17/04/22","09:00",0.0,16.6,58.7,1004.5,342.7,2.3,8.0,344.3,0.35,8.5,13.7,"08:51:28",1
"17/04/22","09:10",0.0,16.8,57.1,1004.5,329.3,2.6,5.5,342.0,0.39,8.3,14.0,"09:03:52",1
"17/04/22","09:20",0.0,16.4,58.6,1004.3,332.5,3.5,5.8,331.4,0.37,8.3,14.1,"09:14:32",1
"17/04/22","09:30",0.0,16.2,57.3,1004.3,340.6,3.0,6.0,345.8,0.31,7.8,14.0,"09:29:52",1
"17/04/22","09:40",0.0,16.5,57.3,1004.5,342.0,3.7,7.4,357.7,0.41,8.1,14.0,"09:36:24",1
"17/04/22","09:50",0.0,16.7,55.6,1004.1,341.3,4.4,8.2,325.8,0.45,7.8,14.2,"09:43:52",1
"17/04/22","10:00",0.0,16.7,57.1,1004.1,337.8,3.9,6.8,340.9,0.45,8.2,14.2,"09:56:24",1
"17/04/22","10:10",0.0,17.2,55.1,1004.1,340.8,3.9,7.8,349.4,0.50,8.2,14.5,"10:04:24",1
"17/04/22","10:20",0.0,17.3,53.8,1003.8,337.8,3.7,6.8,316.3,0.51,7.9,14.7,"10:19:28",1
"17/04/22","10:30",0.0,17.2,52.8,1003.8,340.4,4.6,8.3,337.5,0.54,7.5,14.7,"10:28:48",1
"17/04/22","10:40",0.0,17.1,50.1,1004.1,341.1,4.4,9.6,316.1,0.52,6.7,14.9,"10:36:48",1
"17/04/22","10:50",0.0,17.7,52.6,1004.3,345.3,3.4,6.8,347.0,0.55,7.9,15.2,"10:42:40",1
"17/04/22","11:00",0.0,17.5,48.4,1004.1,344.3,4.1,8.7,344.2,0.53,6.5,15.2,"10:57:28",1
"17/04/22","11:10",0.0,17.8,48.1,1004.1,336.6,3.4,7.3,320.8,0.56,6.7,15.3,"11:03:44",1
"17/04/22","11:20",0.0,18.1,49.6,1004.1,336.1,3.6,6.3,328.3,0.60,7.4,15.5,"11:17:04",1
"17/04/22","11:30",0.0,18.2,45.8,1004.1,328.6,4.0,11.3,335.0,0.60,6.4,15.6,"11:25:20",1
"17/04/22","11:40",0.0,17.8,43.5,1003.8,348.7,4.4,7.0,358.4,0.59,5.3,15.8,"11:30:32",1
"17/04/22","11:50",0.0,18.1,42.7,1004.1,358.4,3.4,7.1,334.2,0.61,5.3,16.2,"11:40:40",1
"17/04/22","12:00",0.0,17.8,38.9,1003.6,356.3,3.7,8.3,345.1,0.59,3.7,16.4,"11:55:52",1
"17/04/22","12:10",0.0,18.2,42.6,1003.4,352.5,3.7,7.1,345.8,0.62,5.3,16.4,"12:05:44",1
"17/04/22","12:20",0.0,18.5,40.9,1003.6,351.2,2.8,7.7,343.4,0.61,5.0,16.7,"12:12:48",1
"17/04/22","12:30",0.0,17.9,39.2,1003.8,8.3,3.5,6.6,14.0,0.53,3.9,16.7,"12:24:48",1
"17/04/22","12:40",0.0,18.0,35.3,1003.4,353.2,4.6,9.8,341.9,0.58,2.5,16.8,"12:34:00",1
"17/04/22","12:50",0.0,18.0,39.7,1003.4,6.7,4.1,7.7,349.8,0.56,4.1,16.9,"12:48:40",1
"17/04/22","13:00",0.0,18.0,37.8,1003.6,352.2,5.1,10.2,314.2,0.61,3.4,16.9,"12:56:16",1
"17/04/22","13:10",0.0,18.3,36.3,1003.4,343.7,4.5,8.5,345.7,0.60,3.1,17.1,"13:04:40",1
"17/04/22","13:20",0.0,18.4,34.6,1003.8,346.8,4.6,10.2,327.0,0.58,2.6,17.3,"13:11:36",1
"17/04/22","13:30",0.0,18.0,37.8,1003.6,352.1,4.5,10.2,338.7,0.52,3.4,17.2,"13:28:40",1
"17/04/22","13:40",0.0,17.8,34.0,1003.6,347.8,4.1,8.0,343.2,0.47,1.8,17.4,"13:30:24",1
"17/04/22","13:50",0.0,17.9,35.6,1003.4,359.8,3.1,7.3,345.3,0.49,2.5,17.4,"13:42:16",1
"17/04/22","14:00",0.0,18.4,35.1,1003.6,345.3,3.9,7.5,346.3,0.52,2.8,17.4,"13:53:12",1
"17/04/22","14:10",0.0,18.0,33.4,1003.4,346.6,3.5,6.0,337.1,0.51,1.7,17.5,"14:03:20",1
"17/04/22","14:20",0.0,18.1,32.4,1003.6,347.9,4.0,8.3,343.0,0.53,1.4,17.4,"14:15:44",1
"17/04/22","14:30",0.0,18.3,33.9,1003.4,340.0,4.0,8.7,347.4,0.50,2.2,17.4,"14:22:56",1
"17/04/22","14:40",0.0,17.8,32.8,1004.1,344.1,5.1,8.5,353.5,0.46,1.3,17.4,"14:35:52",1
"17/04/22","14:50",0.0,17.6,30.5,1003.8,353.2,4.4,7.8,350.0,0.43,0.1,17.7,"14:49:22",1
"17/04/22","15:00",0.0,17.5,32.4,1003.4,347.1,4.5,9.1,352.5,0.37,0.8,17.4,"14:51:36",1
"17/04/22","15:10",0.0,17.3,34.0,1003.1,349.5,5.1,10.8,327.4,0.40,1.3,17.5,"15:07:52",1
"17/04/22","15:20",0.0,17.6,34.2,1003.4,338.6,4.9,8.8,332.9,0.43,1.7,17.4,"15:12:16",1
"17/04/22","15:30",0.0,17.2,33.7,1003.6,344.0,4.5,7.8,350.7,0.34,1.1,17.2,"15:28:56",1
"17/04/22","15:40",0.0,16.6,34.8,1003.6,343.8,4.5,10.9,320.6,0.27,1.0,17.3,"15:30:48",1
"17/04/22","15:50",0.0,16.5,33.3,1003.8,354.0,3.4,6.8,343.9,0.26,0.4,17.2,"15:42:08",1
"17/04/22","16:00",0.0,17.0,32.2,1003.8,346.7,4.2,9.0,346.1,0.30,0.3,17.3,"15:58:56",1
"17/04/22","16:10",0.0,17.1,32.0,1004.1,350.5,4.0,10.2,332.6,0.29,0.3,17.3,"16:01:28",1
"17/04/22","16:20",0.0,17.2,32.8,1004.1,348.8,3.9,7.7,347.8,0.27,0.8,17.2,"16:11:52",1
"17/04/22","16:30",0.0,17.0,31.3,1004.5,345.1,4.9,9.7,335.1,0.26,-0.1,17.2,"16:22:32",1
"17/04/22","16:40",0.0,16.8,32.0,1004.3,358.6,3.6,8.2,332.8,0.24,0.1,16.9,"16:35:12",1
"17/04/22","16:50",0.0,16.5,34.0,1004.3,347.4,3.7,8.1,329.6,0.20,0.6,16.9,"16:45:04",1
"17/04/22","17:00",0.0,16.3,36.0,1004.5,340.3,3.7,9.4,336.3,0.16,1.3,16.9,"16:59:04",1
"17/04/22","17:10",0.0,16.0,36.4,1005.0,338.2,3.6,7.7,338.6,0.14,1.1,16.6,"17:04:00",1
"17/04/22","17:20",0.0,15.4,36.8,1005.0,348.1,4.2,10.1,347.3,0.11,0.8,16.7,"17:14:16",1
"17/04/22","17:30",0.0,15.1,39.8,1005.0,355.2,3.5,6.7,335.8,0.09,1.6,16.4,"17:22:40",1
"17/04/22","17:40",0.0,14.7,42.6,1005.2,344.8,3.0,6.3,318.7,0.06,2.2,16.3,"17:32:00",1
"17/04/22","17:50",0.0,14.3,43.9,1005.5,348.0,2.6,5.2,351.9,0.04,2.2,16.2,"17:43:12",1
"17/04/22","18:00",0.0,14.0,45.8,1005.5,337.0,2.6,6.4,345.9,0.03,2.6,16.2,"17:50:48",1
"17/04/22","18:10",0.0,13.4,48.7,1005.5,333.5,3.1,5.8,350.6,0.01,2.9,15.9,"18:03:52",1
"17/04/22","18:20",0.0,13.0,52.5,1005.5,321.4,3.6,6.3,328.7,0.00,3.6,15.9,"18:13:22",1
"17/04/22","18:30",0.0,12.6,54.8,1005.7,330.8,2.8,4.7,322.2,0.00,3.8,16.0,"18:26:48",1
"17/04/22","18:40",0.0,12.2,57.0,1006.0,322.8,2.0,3.7,336.0,0.00,4.0,15.5,"18:31:04",1
"17/04/22","18:50",0.0,12.0,58.1,1006.0,322.7,2.7,3.5,313.8,0.00,4.1,15.7,"18:45:04",1
"17/04/22","19:00",0.0,11.7,59.5,1006.2,333.8,2.0,3.5,352.6,0.00,4.1,15.4,"18:57:44",1
"17/04/22","19:10",0.0,11.3,60.7,1006.7,340.8,1.7,3.3,343.6,0.00,4.0,15.4,"19:09:20",1
"17/04/22","19:20",0.0,10.9,61.4,1006.4,332.0,1.7,2.7,339.7,0.00,3.8,15.1,"19:12:56",1
"17/04/22","19:30",0.0,10.6,63.8,1006.7,337.5,1.5,2.2,328.0,0.00,4.1,15.2,"19:27:12",1
"17/04/22","19:40",0.0,10.1,65.5,1006.7,324.8,1.5,2.2,326.0,0.00,4.0,15.0,"19:37:54",1
"17/04/22","19:50",0.0,9.4,68.5,1006.7,323.8,2.0,3.3,335.0,0.00,3.9,14.7,"19:41:36",1
"17/04/22","20:00",0.0,9.0,71.7,1007.1,314.7,1.5,2.4,321.4,0.00,4.2,14.9,"19:58:16",1
"17/04/22","20:10",0.0,8.8,72.8,1007.4,327.0,1.8,2.8,334.1,0.00,4.2,14.8,"20:04:48",1
"17/04/22","20:20",0.0,8.7,74.0,1007.1,319.7,1.8,3.2,310.9,0.00,4.4,14.7,"20:10:16",1
"17/04/22","20:30",0.0,8.5,74.8,1007.1,313.5,1.8,3.3,330.8,0.00,4.3,14.5,"20:20:32",1
"17/04/22","20:40",0.0,8.4,75.8,1007.6,318.1,1.8,2.8,318.0,0.00,4.4,14.4,"20:39:44",1
"17/04/22","20:50",0.0,8.3,76.8,1007.6,311.9,2.1,3.3,338.7,0.00,4.5,14.3,"20:45:04",1
"17/04/22","21:00",0.0,8.0,78.1,1007.8,299.8,1.3,3.1,322.8,0.00,4.5,14.0,"20:59:04",1
"17/04/22","21:10",0.0,7.9,79.2,1008.3,320.0,2.0,2.5,271.4,0.00,4.6,14.1,"21:06:48",1
"17/04/22","21:20",0.0,7.6,80.1,1007.8,309.0,2.2,3.2,309.8,0.00,4.4,13.9,"21:19:44",1
"17/04/22","21:30",0.0,7.4,81.3,1007.8,315.4,2.6,3.4,319.9,0.00,4.4,13.9,"21:22:16",1
"17/04/22","21:40",0.0,7.3,82.1,1008.1,304.5,2.1,2.7,300.8,0.00,4.5,13.8,"21:39:36",1
"17/04/22","21:50",0.0,7.4,82.2,1007.6,310.0,2.3,3.2,319.7,0.00,4.6,13.7,"21:45:36",1
"17/04/22","22:00",0.0,7.3,82.9,1008.1,311.8,1.8,2.9,321.7,0.00,4.6,13.6,"21:56:16",1
"17/04/22","22:10",0.0,7.3,83.4,1007.8,316.4,2.1,2.9,321.7,0.00,4.7,13.5,"22:08:56",1
"17/04/22","22:20",0.0,7.2,83.8,1007.8,312.2,2.5,2.9,317.7,0.00,4.7,13.4,"22:14:00",1
"17/04/22","22:30",0.0,7.1,84.3,1008.1,310.7,2.3,3.7,319.3,0.00,4.7,13.5,"22:22:40",1
"17/04/22","22:40",0.0,6.9,84.7,1008.1,293.2,2.0,3.5,319.2,0.00,4.5,13.3,"22:31:28",1
"17/04/22","22:50",0.0,6.7,85.4,1008.1,305.2,1.7,2.4,310.6,0.00,4.5,13.3,"22:41:52",1
"17/04/22","23:00",0.0,6.7,85.7,1008.1,302.3,2.2,3.3,314.2,0.00,4.5,13.0,"22:58:32",1
"17/04/22","23:10",0.0,6.6,85.8,1008.1,293.1,1.8,2.4,322.6,0.00,4.4,13.1,"23:06:32",1
"17/04/22","23:20",0.0,6.6,86.4,1008.1,287.8,2.1,2.8,297.9,0.00,4.5,13.0,"23:16:00",1
"17/04/22","23:30",0.0,6.6,86.3,1008.1,306.4,2.3,3.6,321.9,0.00,4.5,12.8,"23:24:48",1
"17/04/22","23:40",0.0,6.5,86.3,1008.1,288.1,1.6,2.1,294.6,0.00,4.4,12.8,"23:33:28",1
"17/04/22","23:50",0.0,6.4,86.7,1008.1,287.9,1.6,2.2,310.8,0.00,4.4,12.8,"23:41:20",1
"17/04/22","24:00",0.0,6.3,87.5,1008.1,302.2,2.0,2.6,315.2,0.00,4.4,12.8,"23:53:28",1
